TimeAKDT,TemperatureF,Dew PointF,Humidity,Sea Level PressureIn,VisibilityMPH,Wind Direction,Wind SpeedMPH,Gust SpeedMPH,PrecipitationIn,Events,Conditions,WindDirDegrees,DateUTC
1:36 AM,42.8,37.4,81,29.43,10.0,ENE,8.1,19.6,N/A,,Overcast,60,2012-10-12 09:36:00
1:56 AM,42.8,37.4,81,29.42,10.0,NE,15.0,19.6,N/A,,Overcast,50,2012-10-12 09:56:00
3:56 AM,41.0,35.6,81,29.37,10.0,ENE,13.8,21.9,N/A,,Overcast,60,2012-10-12 11:56:00
4:36 AM,41.0,35.6,81,29.36,10.0,ENE,11.5,20.7,N/A,,Overcast,60,2012-10-12 12:36:00
4:56 AM,41.0,35.6,81,29.35,10.0,NE,12.7,20.7,N/A,,Overcast,50,2012-10-12 12:56:00
5:36 AM,41.0,35.6,81,29.33,10.0,ENE,15.0,20.7,N/A,,Overcast,60,2012-10-12 13:36:00
5:56 AM,41.0,35.6,81,29.33,10.0,ENE,11.5,21.9,N/A,,Overcast,70,2012-10-12 13:56:00
6:36 AM,41.0,35.6,81,29.32,9.0,ENE,11.5,19.6,N/A,,Overcast,60,2012-10-12 14:36:00
6:56 AM,39.2,35.6,87,29.32,7.0,ENE,11.5,23.0,N/A,,Overcast,60,2012-10-12 14:56:00
7:16 AM,39.2,35.6,87,29.32,9.0,ENE,15.0,23.0,N/A,,Overcast,60,2012-10-12 15:16:00
8:16 AM,39.2,35.6,87,29.31,9.0,ENE,6.9,20.7,N/A,,Overcast,70,2012-10-12 16:16:00
8:36 AM,41.0,35.6,81,29.30,9.0,ENE,8.1,18.4,N/A,,Overcast,70,2012-10-12 16:36:00
9:16 AM,41.0,35.6,81,29.30,9.0,ENE,10.4,17.3,N/A,,Overcast,70,2012-10-12 17:16:00
9:36 AM,41.0,35.6,81,29.30,6.0,NE,9.2,16.1,N/A,,Overcast,50,2012-10-12 17:36:00
11:16 AM,41.0,37.4,87,29.31,1.5,NE,9.2,-,N/A,,Overcast,50,2012-10-12 19:16:00
11:36 AM,41.0,37.4,87,29.31,1.8,ENE,6.9,-,N/A,,Overcast,60,2012-10-12 19:36:00
11:56 AM,42.8,37.4,81,29.32,1.2,ENE,4.6,-,N/A,,Overcast,60,2012-10-12 19:56:00
12:16 PM,42.8,39.2,87,29.32,1.2,ENE,5.8,-,N/A,,Overcast,70,2012-10-12 20:16:00
1:16 PM,42.8,39.2,87,29.33,1.8,Calm,Calm,-,N/A,,Overcast,0,2012-10-12 21:16:00
1:56 PM,44.6,42.8,93,29.34,10.0,SSE,5.8,-,N/A,,Overcast,150,2012-10-12 21:56:00
3:56 PM,48.2,46.4,93,29.36,10.0,SE,11.5,-,N/A,,Overcast,140,2012-10-12 23:56:00
4:56 PM,48.2,46.4,93,29.35,10.0,SE,11.5,19.6,N/A,,Overcast,140,2012-10-13 00:56:00
5:16 PM,48.2,46.4,93,29.35,7.0,SE,10.4,-,N/A,,Overcast,140,2012-10-13 01:16:00
6:36 PM,50.0,46.4,87,29.35,10.0,SE,11.5,-,N/A,,Overcast,130,2012-10-13 02:36:00
6:56 PM,50.0,46.4,87,29.34,10.0,SE,10.4,-,N/A,,Overcast,130,2012-10-13 02:56:00
7:16 PM,50.0,46.4,87,29.34,10.0,ESE,8.1,-,N/A,,Mostly Cloudy,110,2012-10-13 03:16:00
7:36 PM,50.0,46.4,87,29.33,10.0,ESE,9.2,-,N/A,,Overcast,120,2012-10-13 03:36:00
8:36 PM,50.0,46.4,87,29.33,10.0,SE,12.7,18.4,N/A,,Overcast,130,2012-10-13 04:36:00
8:56 PM,50.0,46.4,87,29.33,9.0,ESE,10.4,16.1,N/A,,Overcast,120,2012-10-13 04:56:00
9:16 PM,50.0,46.4,87,29.33,10.0,ESE,12.7,17.3,N/A,,Overcast,120,2012-10-13 05:16:00
10:56 PM,50.0,46.4,87,29.35,10.0,SE,13.8,17.3,N/A,,Overcast,140,2012-10-13 06:56:00
11:16 PM,50.0,46.4,87,29.36,10.0,SE,12.7,-,N/A,,Overcast,140,2012-10-13 07:16:00